Find Starlink 30547

NORAD ID: 58044 Int'l Des: 2023-156 Owner: SPXS Country: US Constellation: starlink operational
LEOCIRCULAR

現在のビュー

3D地球を読み込み中...

About Starlink 30547

Starlink 30547 (NORAD 58044) is a starlink constellation satellite (v2 mini) launched Oct 9, 2023 by SPXS of US. It operates in LEO, CIRCULAR orbit with a mass of 730.00 kg.

次回通過

Passes for default location (London). Set your location on the main map for personalized predictions.

高度履歴

Loading altitude history...

軌道要素

1 58044U 23156S 26222.15722240 -.00000108 00000-0 79355-5 0 9999
2 58044 53.1602 172.8729 0001659 91.8526 268.2667 15.34397308158563
Epoch: Aug 10, 2026 • Age: 7 hours

現在のステータス

高度 467.5 km
遠地点 / 近地点 N/A
速度 7.64 km/s
衛星直下点 50.30°N, 171.5°E
打ち上げ日 Oct 9, 2023
運用期間 2.8 years
タイプ internet

技術仕様

分類 Payload
質量 730.00 kg
乾燥質量 700.00 kg
総質量 730.00 kg
長さ 0.30 m
直径 4.10 m
スパン 29.00 m
形状 Box + pan
製造者 SPXS
バスタイプ Starlink V2M
フェーズステータス In Orbit
所有者/国 SPXS/US

Most Searched